Brisbane, Australia

3:27 AM AEST on February 20, 2017 (GMT +1000)
Brisbane

Weather History for 94578 - November, 2013

Change the Weather History Date:

Wednesday, November 6, 2013

  Actual Average Record
Temperature  
Mean Temperature 66 °F -  
Max Temperature 75 °F 82 °F - ()
Min Temperature 56 °F 66 °F - ()
Growing Degree Days 16 (Base 50)    
Moisture  
Dew Point 52 °F    
Average Humidity 55    
Maximum Humidity 82    
Minimum Humidity 28    
Precipitation  
Precipitation 0.00 in 0.15 in - ()
Sea Level Pressure  
Sea Level Pressure 30.14 in    
Wind  
Wind Speed 8 mph ()    
Max Wind Speed 13 mph    
Max Gust Speed -    
Visibility 7.5 miles    
Events Rain    
T = Trace of Precipitation, MM = Missing Value Source: Averaged Metar Reports

Daily Weather History Graph

Daily Weather History Graph

Search for Another Location

Airport or City:

Trip Planner

Search our weather history database for the weather conditions in past years. The results will help you decide how hot, cold, wet, or windy it might be!

Date:

Astronomy

Nov. 06, 2013 Rise Set
Actual Time 4:53 AM AEST 6:09 PM AEST
Civil Twilight 4:28 AM AEST 6:34 PM AEST
Nautical Twilight 3:59 AM AEST 7:03 PM AEST
Astronomical Twilight 3:28 AM AEST 7:34 PM AEST
Moon 7:01 AM AEST (11/6) 8:57 PM AEST (11/6)
Length of Visible Light 14h 05m
Length of Day
13h 16m
Waxing Crescent, 9% of the Moon is Illuminated
Nov 6
Waxing Crescent
Nov 10
First Quarter
Nov 18
Full
Nov 26
Last Quarter
Dec 3
New

Hourly Weather History & Observations

Time (AEST) Temp. Dew Point Humidity Pressure Visibility Wind Dir Wind Speed Gust Speed Precip Events Conditions
12:00 AM 64 °F 53 °F 59% 30.19 in 12 mi South 6.9 mph - -   Smoke
12:00 AM 64.4 °F 53.6 °F 68% 30.18 in 6.2 mi South 6.9 mph - N/A   Partly Cloudy
12:30 AM 64.4 °F 53.6 °F 68% 30.18 in 6.2 mi South 6.9 mph - N/A   Partly Cloudy
1:00 AM 63 °F 53 °F 62% 30.18 in - South 8.1 mph - -  
1:00 AM 62.6 °F 53.6 °F 72% 30.15 in 6.2 mi South 8.1 mph - N/A   Partly Cloudy
1:30 AM 62.6 °F 53.6 °F 72% 30.15 in 6.2 mi SSW 8.1 mph - N/A   Partly Cloudy
2:00 AM 60.8 °F 51.8 °F 72% 30.15 in 6.2 mi SSW 5.8 mph - N/A   Partly Cloudy
2:30 AM 59.0 °F 51.8 °F 77% 30.18 in 6.2 mi SSW 8.1 mph - N/A   Partly Cloudy
3:00 AM 60 °F 53 °F 69% 30.18 in 12 mi SSW 10.4 mph - -   Partly Cloudy
3:00 AM 60.8 °F 51.8 °F 72% 30.15 in - SSW 10.4 mph - N/A   Clear
3:30 AM 57.2 °F 51.8 °F 82% 30.15 in - SSW 8.1 mph - N/A   Clear
4:00 AM 61 °F 51 °F 61% 30.18 in - SSW 8.1 mph - -  
4:00 AM 60.8 °F 51.8 °F 72% 30.15 in - SSW 8.1 mph - N/A   Clear
4:30 AM 62.6 °F 51.8 °F 68% 30.18 in 6.2 mi South 6.9 mph - N/A   Mostly Cloudy
5:00 AM 60.8 °F 51.8 °F 72% 30.18 in 6.2 mi SSW 5.8 mph - N/A   Mostly Cloudy
5:30 AM 62.6 °F 53.6 °F 72% 30.18 in 6.2 mi SSW 6.9 mph - N/A   Light Drizzle
6:00 AM 63 °F 54 °F 66% 30.19 in 12 mi SSW 8.1 mph - - Rain Light Drizzle
6:00 AM 62.6 °F 55.4 °F 77% 30.18 in 6.2 mi SSW 8.1 mph - N/A   Mostly Cloudy
6:30 AM 66.2 °F 53.6 °F 64% 30.18 in 6.2 mi SSW 10.4 mph - N/A   Scattered Clouds
7:00 AM 67 °F 51 °F 47% 30.21 in - SSW 9.2 mph - -  
7:00 AM 66.2 °F 51.8 °F 60% 30.18 in 6.2 mi SSW 9.2 mph - N/A   Scattered Clouds
7:30 AM 68.0 °F 51.8 °F 56% 30.18 in 6.2 mi SSW 8.1 mph - N/A   Scattered Clouds
8:00 AM 69.8 °F 48.2 °F 46% 30.18 in 6.2 mi SSE 8.1 mph - N/A   Scattered Clouds
8:30 AM 73.4 °F 50.0 °F 44% 30.21 in 6.2 mi ESE 10.4 mph - N/A   Mostly Cloudy
9:00 AM 73 °F 49 °F 31% 30.21 in 16 mi ESE 9.2 mph - -   Partly Cloudy
9:00 AM 73.4 °F 48.2 °F 41% 30.21 in 6.2 mi ESE 9.2 mph - N/A   Mostly Cloudy
9:30 AM 73.4 °F 48.2 °F 41% 30.18 in 6.2 mi East 10.4 mph - N/A   Mostly Cloudy
10:00 AM 74 °F 48 °F 28% 30.20 in - East 9.2 mph - -  
10:00 AM 75.2 °F 48.2 °F 38% 30.18 in 6.2 mi East 9.2 mph - N/A   Mostly Cloudy
10:30 AM 75.2 °F 51.8 °F 44% 30.18 in 6.2 mi ESE 11.5 mph - N/A   Mostly Cloudy
11:00 AM 75.2 °F 53.6 °F 47% 30.15 in 6.2 mi East 9.2 mph - N/A   Scattered Clouds
11:30 AM 75.2 °F 53.6 °F 47% 30.15 in 6.2 mi ESE 10.4 mph - N/A   Scattered Clouds
12:00 PM 74 °F 51 °F 34% 30.16 in 19 mi East 11.5 mph - -   Partly Cloudy
12:00 PM 75.2 °F 51.8 °F 44% 30.15 in 6.2 mi East 11.5 mph - N/A   Scattered Clouds
12:30 PM 75.2 °F 50.0 °F 41% 30.12 in 6.2 mi East 11.5 mph - N/A   Scattered Clouds
1:00 PM 75 °F 51 °F 33% 30.13 in - East 12.7 mph - -  
1:00 PM 75.2 °F 51.8 °F 44% 30.12 in 6.2 mi East 12.7 mph - N/A   Mostly Cloudy
1:30 PM 73.4 °F 51.8 °F 47% 30.09 in 6.2 mi East 10.4 mph - N/A   Mostly Cloudy
2:00 PM 75.2 °F 50.0 °F 41% 30.09 in 6.2 mi ESE 11.5 mph - N/A   Mostly Cloudy
2:30 PM 75.2 °F 50.0 °F 41% 30.09 in 6.2 mi East 10.4 mph - N/A   Mostly Cloudy
3:00 PM 73 °F 49 °F 32% 30.09 in 16 mi East 10.4 mph - -   Partly Cloudy
3:00 PM 73.4 °F 50.0 °F 44% 30.06 in 6.2 mi East 10.4 mph - N/A   Mostly Cloudy
3:30 PM 73.4 °F 50.0 °F 44% 30.09 in 6.2 mi ENE 10.4 mph - N/A   Mostly Cloudy
4:00 PM 73 °F 50 °F 33% 30.10 in - East 10.4 mph - -  
4:00 PM 73.4 °F 50.0 °F 44% 30.09 in 6.2 mi East 10.4 mph - N/A   Mostly Cloudy
4:30 PM 71.6 °F 51.8 °F 50% 30.09 in 6.2 mi ENE 12.7 mph - N/A   Mostly Cloudy
5:00 PM 71.6 °F 51.8 °F 50% 30.09 in 6.2 mi ENE 11.5 mph - N/A   Mostly Cloudy
5:30 PM 69.8 °F 51.8 °F 53% 30.09 in 6.2 mi NE 10.4 mph - N/A   Mostly Cloudy
6:00 PM 70 °F 53 °F 43% 30.12 in 16 mi ENE 6.9 mph - -   Partly Cloudy
6:00 PM 69.8 °F 51.8 °F 53% 30.09 in 6.2 mi ENE 6.9 mph - N/A   Mostly Cloudy
6:30 PM 69.8 °F 53.6 °F 56% 30.12 in 6.2 mi ENE 6.9 mph - N/A   Mostly Cloudy
7:00 PM 69 °F 56 °F 55% 30.13 in - ENE 8.1 mph - -  
7:00 PM 69.8 °F 57.2 °F 64% 30.12 in 6.2 mi ENE 8.1 mph - N/A   Mostly Cloudy
7:30 PM 68.0 °F 57.2 °F 68% 30.12 in 6.2 mi NE 8.1 mph - N/A   Mostly Cloudy
8:00 PM 68.0 °F 57.2 °F 68% 30.12 in 6.2 mi ENE 8.1 mph - N/A   Scattered Clouds
8:30 PM 68.0 °F 57.2 °F 68% 30.12 in 6.2 mi NE 6.9 mph - N/A   Scattered Clouds
9:00 PM 69 °F 56 °F 53% 30.14 in 16 mi ENE 8.1 mph - -   Partly Cloudy
9:00 PM 69.8 °F 55.4 °F 60% 30.12 in 6.2 mi NE 8.1 mph - N/A   Scattered Clouds
9:30 PM 69.8 °F 55.4 °F 60% 30.12 in 6.2 mi ENE 6.9 mph - N/A   Scattered Clouds
10:00 PM 69 °F 55 °F 52% 30.14 in - East 4.6 mph - -  
10:00 PM 68.0 °F 55.4 °F 64% 30.12 in 6.2 mi East 4.6 mph - N/A   Mostly Cloudy
10:30 PM 68.0 °F 55.4 °F 64% 30.12 in 6.2 mi East 5.8 mph - N/A   Mostly Cloudy
11:00 PM 68.0 °F 55.4 °F 64% 30.12 in 6.2 mi East 4.6 mph - N/A   Mostly Cloudy
11:30 PM 68.0 °F 55.4 °F 64% 30.12 in 6.2 mi East 5.8 mph - N/A   Mostly Cloudy